Tracking 18957 objects as of 23-Jan-2018
HD Live streaming from Space Station
objects crossing your sky now

IRS B3

Track IRS B3 now!
10-day predictions
IRS B3 is classified as:


NORAD ID: 23827
Int'l Code: 1996-017A
Perigee: 820.8 km
Apogee: 827.0 km
Inclination: 98.7 °
Period: 101.2 minutes
Semi major axis: 7194 km
RCS: 2.718 m2 (large)
Launch date: March 21, 1996
Source: India (IND)
Launch site: SRIHARIKOTA (SRI)

Remote sensing.
aabbcc
Your satellite tracking list
Your tracking list is empty




NASA's NSSDC Master Catalog

Two Line Element Set (TLE):
1 23827U 96017A   18022.89101987 +.00000021 +00000-0 +29262-4 0  9999
2 23827 098.7479 323.6953 0004323 113.4983 246.6650 14.22536951133666
Source of the keplerian elements: AFSPC